CAPE
0 0 0 0 0 0 0 0 0 0 0 0 0 0 0 0 0 0 0 2 1110 1172 1184 1185 1159 1139 1207 1158 1345 1247 1191 986 1180 940 882 783 702 640 566 531 431 547 566 596 599 605 644 637 536 411 531 754 967 1174 1236 1336 1365 1469 1614 1662 1670 1591 1696 1637 1532 1699 1545 1445 1527 1444 1318 1428 1722 2002 2106 2119 2048 2030 2004 2424 2438 2662 2254 2807 3028 3096
0 0 0 0 0 0 0 0 0 0 0 0 0 0 0 0 0 0 0 8 704 347 250 942 1169 1177 1182 1069 1264 1418 1228 1116 1091 1106 894 808 745 684 630 556 464 421 497 404 479 483 551 590 574 518 607 796 1044 1330 1350 1302 1314 1459 1362 1575 1668 1716 1705 1829 1785 1841 1584 1621 1478 1409 1324 1390 1652 1991 2069 2093 2174 1978 2105 2812 2807 2664 2419 2796 2985 3110
0 0 0 0 0 0 0 0 0 0 0 0 0 0 0 0 0 0 0 0 252 294 46 288 360 343 552 1046 1134 1385 1318 1292 1166 1128 1174 1064 950 748 646 600 573 414 325 301 298 375 472 525 533 568 663 780 964 1235 1337 1416 1440 1513 1444 1689 1822 1700 1810 1980 1860 1903 1732 1697 1630 1310 1573 1592 1651 1813 1832 1630 1844 2201 2013 2519 2770 2816 2934 2938 2920 3065
0 0 0 0 0 0 0 0 0 0 0 0 0 0 0 0 0 0 0 25 150 19 4 232 78 62 252 718 974 1258 1292 1454 1423 1288 1211 1140 1029 926 655 628 598 508 374 405 275 272 269 478 534 557 692 839 913 1218 1305 1464 1612 1562 1556 1835 2027 2011 1946 2020 1982 1850 1752 1637 1714 1578 1665 1604 1647 1799 1983 2119 2200 2283 2260 2372 2772 2956 3174 2945 2670 2841
0 0 0 0 0 0 0 0 0 0 0 0 0 0 0 0 0 0 0 0 9 79 75 87 22 63 404 439 640 1093 1258 1409 1526 1453 1165 1089 1090 1006 886 599 595 552 435 364 376 382 396 448 473 537 651 810 968 1163 1319 1432 1544 1512 1649 1879 2024 2073 2004 2104 2014 1918 1795 1634 1512 1532 1515 1548 1741 1721 1991 2071 2072 2195 2409 2304 2737 2854 3235 3112 2812 2934
0 0 0 0 0 0 0 0 0 0 0 0 0 0 0 0 0 0 0 0 0 0 13 46 0 22 384 558 556 864 1293 1286 1409 1516 1298 1222 1066 984 824 661 644 601 520 388 366 365 373 438 483 522 612 714 878 1097 1265 1377 1487 1560 1682 1828 1993 2056 2058 2026 2056 1979 1721 1599 1567 1534 1490 1580 1650 1840 1979 1966 2105 2148 2316 2057 2265 2919 3019 2965 2931 3018
0 0 0 0 0 0 0 0 0 0 0 0 0 0 0 0 0 0 0 0 0 0 0 29 0 0 13 158 659 908 1102 1291 1378 1372 1366 1387 1225 1022 963 714 676 672 591 463 350 326 292 430 472 535 612 640 753 957 1138 1319 1477 1615 1709 1813 1939 1993 2087 1994 2017 2013 1625 1706 1607 1507 1492 1571 1691 1797 1922 2243 1988 2108 2376 2413 2883 3022 3115 3302 2906 2784
0 0 0 0 0 0 0 0 0 0 0 0 0 0 0 0 0 0 0 0 0 0 0 0 0 0 0 4 256 953 1090 1246 1373 1318 1390 1381 1432 1194 1016 820 751 712 680 591 457 376 331 364 457 549 580 589 646 826 991 1210 1422 1679 1858 1834 1847 1924 1946 1947 1994 1917 1658 1712 1650 1601 1532 1492 1685 1441 1932 2289 2454 2494 2890 2972 2846 2940 3081 3355 3161 2981
0 0 0 0 0 0 0 0 0 0 0 0 0 0 0 0 0 0 0 0 0 0 0 0 0 0 7 18 736 1042 1202 1291 1326 1342 1368 1380 1414 1328 1175 1008 897 734 744 670 562 468 412 358 335 539 569 601 611 726 888 1116 1379 1667 1848 1827 1827 1865 1920 1928 1896 1823 1680 1722 1669 1600 1500 1593 1532 1529 1747 1897 2126 2449 2732 2944 3247 3375 3128 3372 3146 3032
0 0 0 0 0 0 0 0 0 0 0 0 0 0 0 0 0 0 0 0 0 0 0 0 0 0 0 5 1058 1321 1173 1097 975 1242 1248 1371 1452 1385 1279 1154 1006 828 786 757 674 574 497 451 391 505 560 592 608 700 864 981 1220 1529 1720 1751 1768 1763 1784 1779 1777 1790 1713 1654 1660 1574 1487 1524 1586 1445 1648 1639 2163 2584 2984 3015 3353 3490 3602 3157 3083 2892
0 0 0 0 0 0 0 0 0 0 0 0 0 0 0 0 0 0 0 0 0 0 0 0 0 0 0 9 1012 970 30 282 151 246 1348 1401 1383 1422 1389 1274 1145 1004 847 813 767 680 618 565 488 427 415 602 620 710 844 899 1092 1329 1510 1670 1703 1728 1696 1676 1731 1735 1695 1644 1588 1518 1496 1418 1504 1402 1596 1742 2084 2432 2818 2843 3036 3315 3506 3450 3206 3026
0 0 0 0 0 0 0 0 0 0 0 0 0 0 0 0 0 0 0 0 0 0 0 0 0 0 0 6 0 300 11 49 81 60 54 954 1476 1436 1488 1298 1031 932 886 859 811 763 705 662 602 504 442 436 669 725 832 830 1023 1182 1373 1550 1686 1748 1699 1629 1550 1596 1558 1523 1559 1543 1553 1424 1456 1468 1344 1599 1852 2250 2524 2711 2999 3323 3460 3512 3394 3265
0 0 0 0 0 0 0 0 0 0 0 0 0 0 0 0 0 0 0 0 0 0 0 0 0 0 0 0 0 0 8 88 90 75 66 48 322 1337 1433 1424 1253 989 947 927 879 823 774 738 697 622 568 520 780 841 855 812 915 1072 1315 1520 1707 1802 1656 1635 1473 1526 1573 1550 1553 1546 1507 1484 1540 1456 1479 1672 1858 2253 2376 2585 2834 3340 3327 3390 3213 3010
0 0 0 0 0 0 0 0 0 0 0 0 0 0 0 0 0 0 0 0 0 0 0 0 0 0 0 0 0 0 0 45 86 49 40 69 113 301 1228 1477 1341 1202 1050 944 928 879 818 810 783 729 666 671 846 689 834 840 926 1067 1167 1450 1573 1763 1704 1659 1482 1470 1580 1551 1604 1587 1520 1493 1513 1372 1363 1477 1450 1804 2274 2676 2790 2572 2676 3286 3118 3122
0 0 0 0 0 0 0 0 0 0 0 0 0 0 0 0 0 0 0 0 0 0 0 0 0 0 0 0 0 0 0 42 88 118 38 54 101 269 544 1285 1383 1238 1174 1163 1105 935 875 1042 826 797 741 690 666 651 625 601 982 1193 1191 1432 1565 1776 1710 1684 1536 1498 1559 1526 1580 1584 1449 1460 1419 1267 1205 1347 1312 1731 2127 2069 2308 2809 2622 2887 3140 3426
0 0 0 0 0 0 0 0 0 0 0 0 0 0 0 0 0 0 0 0 0 0 0 0 0 0 0 0 0 30 32 33 83 134 136 40 48 189 638 1068 1337 1276 1222 979 1131 1174 1074 1170 1150 823 796 743 731 726 695 674 1020 1134 1190 1478 1560 1718 1716 1612 1613 1544 1529 1633 1541 1619 1474 1357 1356 1394 1230 1499 1635 1871 1915 2353 2481 2894 3054 2893 3230 3516
0 0 0 0 0 0 0 0 0 0 0 0 0 0 0 0 0 0 0 0 0 0 0 0 0 0 0 0 0 17 20 10 15 69 12 173 12 58 387 753 955 1252 1242 1032 972 1059 1275 1224 1286 1114 851 812 790 747 728 827 1093 1086 1224 1289 1434 1584 1600 1567 1664 1570 1514 1643 1606 1602 1467 1294 1271 1214 1119 987 1050 839 1404 2084 2356 2449 2527 2760 3135 3177
0 0 0 0 0 0 0 0 0 0 0 0 0 0 0 0 0 0 0 0 0 0 0 0 0 0 0 0 0 13 8 0 0 3 9 101 2 8 16 476 717 914 975 1244 1188 1224 1281 1309 1291 1230 894 867 844 796 780 999 995 1162 1182 1135 1300 1476 1532 1471 1539 1461 1503 1611 1570 1599 1518 1430 1251 1024 928 903 973 915 1358 1753 2076 2042 2474 2457 2493 2683
0 0 0 0 0 0 0 0 0 0 0 0 0 0 0 0 0 0 0 0 0 0 0 0 0 0 0 0 10 11 3 0 0 0 2 3 255 78 0 0 17 660 871 926 1219 1190 1238 1258 1245 1313 1155 860 854 858 830 793 761 732 956 983 1075 1214 1298 1306 1282 1350 1461 1489 1398 1395 1413 1375 1303 1106 1059 1006 1062 1093 1023 947 1330 1615 1907 2140 2436 2715
0 0 0 0 0 0 0 0 0 0 0 0 0 0 0 0 0 0 0 0 0 0 0 0 0 0 0 0 0 3 0 1 2 52 13 135 331 323 315 0 4 39 509 872 1096 1208 1192 1141 1196 1205 1212 961 862 882 858 833 775 752 747 881 960 1069 1233 1250 1217 1349 1440 1397 1333 1251 1385 1436 1396 1338 1193 1213 1227 959 874 931 1025 1278 1472 1862 2012 2227
0 0 0 0 0 0 0 0 0 0 0 0 0 0 0 0 0 0 0 0 0 0 0 0 0 0 4 8 10 24 42 56 0 89 102 175 347 391 398 327 332 266 266 587 909 1211 1095 1156 939 882 1198 992 783 833 852 838 814 780 753 733 694 966 1064 1112 1112 1203 1450 1356 1355 1442 1454 1390 1415 1263 1130 1098 1049 993 908 938 976 914 1045 1633 1812 1966
0 0 0 0 0 0 0 0 0 0 0 0 0 0 0 0 0 0 0 0 0 0 0 0 0 0 0 6 0 25 34 101 86 123 132 256 449 506 462 444 478 458 481 581 890 1114 1020 1202 894 913 1120 1039 798 771 763 772 762 763 727 683 659 680 977 989 1040 1195 1339 1306 1342 1366 1402 1265 1222 1224 1151 1013 992 994 908 892 954 936 1027 1136 1482 1757
0 0 0 0 0 0 0 0 0 0 0 0 0 0 0 0 0 0 0 0 0 0 0 0 0 0 0 2 2 0 30 64 106 136 198 226 381 568 622 562 624 622 604 772 982 1057 1216 1092 1001 969 939 910 888 862 856 821 801 792 752 693 676 654 622 853 926 1029 1310 1372 1406 1446 1327 1261 1298 1241 1152 1011 941 889 783 800 821 866 857 636 714 1350
0 0 0 0 0 0 0 0 0 0 0 0 0 0 0 0 0 0 0 0 0 0 0 0 0 0 0 0 2 0 0 21 25 114 133 189 249 412 618 713 684 799 788 806 991 1115 1130 1118 1355 1020 1018 1252 1042 938 928 882 829 762 726 707 682 699 679 594 850 973 1258 1305 1286 1324 1332 1370 1277 1125 1063 951 908 852 807 714 702 827 707 624 529 824
0 0 0 0 0 0 0 0 0 0 0 0 0 0 0 0 0 0 0 0 0 0 0 0 0 0 3 2 0 0 1 0 0 133 170 218 229 243 544 705 746 814 906 957 923 1058 1105 1134 1143 1183 1257 1576 1383 975 926 941 934 863 785 730 699 729 735 684 588 918 1095 1134 1141 1152 1253 1254 1218 1137 1047 943 866 866 809 761 681 667 608 570 516 571
0 0 0 0 0 0 0 0 0 0 0 0 0 0 0 0 0 0 0 0 0 0 0 0 0 0 8 4 0 0 0 0 0 13 173 255 341 332 358 553 651 766 871 951 1026 1077 1140 1158 1182 1177 1186 1377 1359 1079 1026 1001 987 937 929 840 765 740 729 739 709 601 1012 1051 1014 1133 1172 1251 1178 1100 1076 975 894 836 803 787 717 624 598 537 541 578
0 0 0 0 0 0 0 0 0 0 0 0 0 0 0 0 0 0 0 0 0 0 0 0 0 0 0 0 0 0 0 0 0 0 4 212 356 367 428 457 603 665 733 821 1004 1086 1133 1171 1179 1209 1230 1198 1165 1096 1079 1100 1063 1034 1004 930 902 828 740 758 773 700 760 995 980 1166 1178 1201 1187 1197 1100 1086 974 869 835 772 730 634 571 540 512 534
0 0 0 0 0 0 0 0 0 0 0 0 0 0 0 0 0 0 0 0 0 0 0 0 0 0 0 0 0 0 0 0 0 0 0 0 102 0 198 526 767 828 817 723 820 976 1076 1153 1175 1223 1236 1207 1210 1147 1138 1102 1140 1112 1080 1054 1006 944 875 820 780 759 1015 1045 1096 1195 1219 1174 1184 1232 1243 1179 1214 1090 921 808 737 728 611 550 504 456
0 0 0 0 0 0 0 0 0 0 0 0 0 0 0 0 0 0 0 0 0 0 0 0 0 0 0 0 0 0 0 0 0 0 0 0 0 0 216 297 534 727 782 794 791 801 928 1028 1090 1134 1186 1225 1216 1206 1181 1159 1115 1543 1030 1034 1058 1050 1024 962 890 834 801 964 1205 1338 1382 1312 1218 1280 1350 1362 1447 1322 1103 937 862 810 757 658 528 390
0 0 0 0 0 0 0 0 0 0 0 0 0 0 0 0 0 0 0 0 0 0 0 0 0 0 0 0 0 0 0 0 0 0 0 0 0 0 0 289 407 533 697 815 784 784 816 921 1014 1101 1139 1155 1203 1194 1186 1169 1151 1112 1074 1102 973 995 993 969 953 902 847 816 1160 1436 1486 1530 1416 1351 1442 1484 1604 1578 1356 1032 806 666 807 713 628 534
0 0 0 0 0 0 0 0 0 0 0 0 0 0 0 0 0 0 0 0 0 0 0 0 0 0 0 0 0 0 0 0 0 0 0 0 0 0 0 0 180 332 487 846 797 746 791 855 874 968 1069 1114 1120 1135 1140 1121 1132 1068 1052 1040 1025 954 952 942 924 894 865 841 826 1315 1436 1708 1751 1614 1632 1681 1729 1626 1466 1164 838 761 766 782 747 726
0 0 0 0 0 0 0 0 0 0 0 0 0 0 0 0 0 0 0 0 0 0 0 0 0 0 3 0 0 1 0 0 0 0 0 0 0 0 0 0 0 284 416 548 756 741 701 834 888 915 937 985 1040 1068 1067 1074 1061 1050 1024 1018 1017 1068 1413 906 893 873 863 855 1134 1422 1593 1516 1645 1728 1748 1765 1674 1652 1544 1251 1057 753 812 847 878 884
0 0 0 0 0 0 0 0 0 0 0 0 0 0 0 0 0 0 0 1 0 0 0 0 0 0 1 0 1 0 0 0 0 0 0 0 0 0 0 0 0 153 226 530 642 794 821 799 875 911 950 957 935 972 989 964 949 955 982 969 969 1465 1536 1624 893 842 820 800 871 1569 1706 1569 1727 1854 1727 1743 1684 1697 1622 1489 1208 1076 751 823 879 917
0 0 0 0 0 0 0 0 0 0 0 0 0 0 0 0 0 0 2 7 1 0 0 0 0 2 0 0 0 0 0 0 0 0 0 0 0 0 0 0 0 0 57 204 390 475 594 788 745 785 912 961 987 953 980 943 920 909 904 912 888 1273 1777 1970 2385 1607 1307 1361 1420 1745 1778 1895 1810 1754 1757 1844 1840 1747 1618 1468 1347 1074 804 816 796 879
0 0 0 0 0 0 0 0 0 0 0 0 0 0 0 0 1 1 2 0 2 2 0 0 0 1 1 0 0 0 0 0 0 0 0 0 0 0 0 0 0 0 0 0 186 288 357 502 669 687 728 792 876 953 996 1044 1047 963 936 866 829 889 1408 1697 2026 2421 2071 1804 1921 1882 1916 2047 1838 1958 2003 2058 1922 1811 1682 1573 1432 1179 816 817 832 867
0 0 0 0 0 0 0 0 0 0 0 0 0 0 0 0 1 6 4 1 0 3 4 6 1 0 1 1 0 0 0 0 0 0 0 0 0 0 0 0 0 0 0 0 6 123 224 328 432 612 634 649 735 795 865 960 990 1048 1070 1070 1019 979 938 871 958 1150 1586 1836 2076 2215 2072 1793 1548 1858 1940 1429 1989 1831 1862 1743 1737 1623 1293 915 868 925
0 0 0 0 0 0 0 0 0 0 0 0 0 0 0 0 0 0 0 1 0 0 0 0 1 1 0 0 0 0 0 0 0 0 0 0 0 0 0 0 0 0 0 0 0 26 115 197 299 351 494 595 650 703 748 828 951 1020 1013 1073 1126 1059 969 924 961 857 1068 1176 1287 1696 1654 1751 1635 1569 1643 1614 1382 1418 1488 1960 1920 1797 1628 1236 973 1025
0 0 0 0 0 0 0 0 0 0 0 0 0 0 0 0 0 0 0 0 0 0 0 0 0 0 0 0 0 0 0 2 0 1 0 0 0 0 0 0 0 0 0 0 0 0 0 64 132 220 274 427 543 611 621 616 745 868 924 871 833 811 884 965 1005 950 1027 1088 1120 1350 1509 1604 1530 1473 1413 1520 1585 1587 1817 1617 1734 1861 1695 1516 1250 1089
0 0 0 0 0 0 0 0 0 0 0 0 0 0 0 0 0 0 0 0 1 0 0 0 0 0 0 0 0 0 0 0 0 0 0 0 0 0 0 0 0 0 0 0 0 0 0 31 91 114 160 263 333 400 493 501 593 609 614 596 622 574 698 899 915 958 937 986 1026 1038 1073 1258 1644 1659 1477 1524 1404 1270 1433 1554 1707 1990 2087 1796 1521 1275
0 0 0 0 0 0 0 0 0 0 0 0 0 0 0 0 0 0 0 1 0 0 1 0 0 0 0 0 0 0 0 0 0 0 0 0 0 0 0 0 0 0 0 0 0 0 0 0 0 46 64 94 174 207 261 301 391 440 434 426 421 553 553 820 1007 1152 1078 1023 1017 1072 1079 1062 1056 1631 1726 1720 1791 1594 1340 1462 1776 1509 1286 1446 1569 1113
0 0 0 0 0 0 0 0 0 0 0 0 0 0 0 0 0 0 0 8 0 0 0 0 0 0 0 0 0 0 0 0 0 0 0 0 0 0 0 0 0 0 0 0 0 0 0 0 0 0 38 52 59 101 130 163 214 299 299 308 280 288 560 588 681 841 868 1004 1107 1142 1163 1278 1356 1295 1439 1662 1887 1608 1488 1363 1711 1561 1221 1326 1415 1033
0 0 0 0 0 0 0 0 0 0 0 0 0 0 0 0 0 0 5 0 0 0 0 0 0 0 0 0 0 0 0 0 0 0 0 0 0 0 0 0 0 0 0 0 0 0 0 0 0 0 0 6 46 50 26 96 122 167 166 170 157 194 306 484 461 493 466 642 834 1004 1055 1212 1447 1479 1415 1398 1332 1601 1645 1972 1959 1526 1550 1872 1605 1546
0 0 0 0 0 0 0 0 0 0 0 0 0 0 26 0 0 6 0 0 0 0 0 0 0 0 0 0 0 0 0 0 0 0 0 0 0 0 0 0 0 0 0 0 0 0 0 0 0 0 0 0 0 23 48 13 85 28 42 132 95 108 76 206 332 322 299 407 509 578 1217 1448 1271 1263 1308 1384 1387 1435 1740 1853 1754 1692 1724 1696 1644 1692
0 0 0 0 0 0 0 0 0 0 0 0 0 0 4 0 0 0 0 0 0 0 0 0 0 0 0 0 0 0 0 0 0 0 0 0 0 0 0 0 0 0 0 0 0 0 0 0 0 0 0 0 0 0 0 26 6 0 0 0 1 1 1 1 2 0 210 229 173 252 383 595 919 1084 1306 1346 1564 1498 1319 1713 1690 1548 1571 1701 1890 1730
0 0 0 0 0 0 0 0 0 0 0 0 0 0 0 0 0 0 0 0 0 0 0 0 0 0 0 0 0 0 0 0 0 0 0 0 0 0 0 0 0 0 0 0 0 0 0 0 0 0 0 0 0 0 0 0 0 0 0 0 0 2 2 1 1 8 161 231 220 182 223 332 508 619 1199 1333 1416 1409 1395 1328 1505 1592 1527 1709 2003 2052
0 0 0 0 0 0 0 0 0 0 0 0 0 0 0 0 0 0 0 0 0 0 0 0 0 0 0 0 0 0 0 0 0 0 0 0 0 0 0 0 0 0 0 0 0 0 0 0 0 0 0 0 0 0 0 0 0 0 0 0 0 1 2 2 42 2 2 53 140 147 191 208 264 361 362 743 1539 1559 1595 1429 1450 1475 1684 1681 2006 2280
0 0 0 0 0 0 0 6 0 0 0 0 0 0 0 0 0 0 0 0 0 0 0 0 0 0 0 0 0 0 0 0 0 0 0 0 0 0 0 0 0 0 0 0 0 0 0 0 0 0 0 0 0 0 0 0 0 0 0 0 0 0 2 5 2 2 2 1 0 1 34 164 130 29 110 202 926 1660 1879 1925 1825 1618 1506 1817 1964 1954
0 0 0 0 0 0 0 0 0 0 0 0 0 0 0 0 0 0 0 0 0 0 0 0 0 0 0 0 0 0 0 0 0 0 0 0 0 0 0 0 0 0 0 0 0 0 0 0 0 0 0 0 0 0 0 0 0 0 0 0 0 0 1 3 4 3 2 2 3 1 2 2 2 14 92 294 638 1034 1709 2374 2310 2159 2052 2010 1926 2148
0 0 0 0 0 0 0 0 0 0 0 0 0 0 0 0 0 0 0 0 0 0 0 0 0 0 0 0 0 0 0 0 0 0 0 0 0 0 0 0 0 0 0 0 0 0 0 0 0 0 0 0 0 0 0 0 0 0 0 0 0 0 1 1 2 4 4 3 3 2 4 5 4 26 93 244 543 827 1412 1731 2013 2083 2018 2074 2198 2087
0 0 0 0 0 0 0 2 0 0 0 0 0 0 0 0 0 0 0 0 0 0 0 0 0 0 0 0 0 0 0 0 0 0 0 0 0 0 0 0 0 0 0 0 0 0 0 0 0 0 0 0 0 0 0 0 0 0 0 0 0 0 0 2 2 2 2 2 4 6 3 5 5 6 10 45 176 410 602 765 811 944 1245 1622 1646 1724
0 11 0 0 0 0 0 2 2 0 0 0 0 0 0 0 0 0 0 0 0 0 0 0 0 0 0 0 0 0 0 0 0 0 0 0 0 0 0 0 0 0 0 0 0 0 0 0 0 0 0 0 0 0 0 0 0 2 2 1 0 0 0 0 2 2 2 3 3 4 6 5 3 1 7 59 128 357 554 716 730 784 859 904 1018 1265
Wind_Speed
nan nan nan nan nan nan nan nan nan nan nan nan nan nan nan nan nan nan nan nan 13 18 16 14 15 18 18 14 13 11 11 10 9 8 7 6 6 6 6 5 6 4 3 3 5 6 6 5 4 4 4 2 2 2 3 3 3 3 7 10 10 11 10 11 11 12 12 13 12 13 13 13 12 12 12 12 11 9 8 6 6 6 8 8 8 7
nan nan nan nan nan nan nan nan nan nan nan nan nan nan nan nan nan nan nan nan 19 20 25 20 19 18 18 16 12 11 9 7 6 6 5 4 4 5 6 5 5 5 4 4 4 6 7 5 6 4 3 3 3 3 3 3 2 3 4 8 11 12 11 11 11 12 12 13 12 10 11 12 12 10 10 11 10 9 7 5 5 6 7 8 8 7
nan nan nan nan nan nan nan nan nan nan nan nan nan nan nan nan nan nan nan nan 24 21 nan 24 21 20 19 16 13 11 9 8 6 4 3 5 5 4 3 3 3 4 4 4 5 5 5 6 6 4 3 2 2 3 3 3 3 3 3 8 12 13 11 11 11 11 11 11 11 10 10 10 10 10 10 10 10 9 8 5 5 6 7 8 8 8
nan nan nan nan nan nan nan nan nan nan nan nan nan nan nan nan nan nan nan nan 26 nan nan 29 nan nan 24 22 15 14 13 13 10 8 9 9 9 8 7 4 2 2 2 3 4 5 4 4 3 3 2 3 1 2 2 3 4 3 4 9 12 13 12 12 10 9 8 9 9 9 9 9 11 10 9 9 10 9 8 6 5 6 6 8 8 7
nan nan nan nan nan nan nan nan nan nan nan nan nan nan nan nan nan nan nan nan nan nan nan nan nan nan 26 24 23 20 17 15 14 12 10 11 10 11 9 3 0 1 1 1 2 3 3 3 2 2 1 2 1 1 2 3 4 4 3 7 11 14 13 12 9 7 7 8 9 9 9 10 10 12 11 10 9 8 7 7 5 5 5 6 8 7
nan nan nan nan nan nan nan nan nan nan nan nan nan nan nan nan nan nan nan nan nan nan nan nan nan nan 30 26 24 24 20 13 14 13 10 11 13 12 7 1 2 2 1 2 3 2 2 1 1 2 2 3 1 1 3 3 3 3 3 5 10 14 14 12 8 6 6 7 8 9 10 9 11 11 10 9 7 6 6 7 5 4 5 6 7 6
nan nan nan nan nan nan nan nan nan nan nan nan nan nan nan nan nan nan nan nan nan nan nan nan nan nan nan 26 23 20 15 10 12 10 10 12 12 10 7 5 1 2 1 2 2 3 3 2 3 3 3 2 1 1 4 4 2 3 3 3 7 13 14 12 9 6 8 8 8 8 10 10 8 8 8 8 7 7 7 7 5 5 6 6 7 6
nan nan nan nan nan nan nan nan nan nan nan nan nan nan nan nan nan nan nan nan nan nan nan nan nan nan nan nan 26 18 12 9 9 7 7 8 8 9 9 6 2 1 2 1 4 4 5 5 5 5 4 2 2 2 3 4 3 3 2 3 6 12 13 12 10 7 8 9 9 9 9 9 8 7 7 6 7 8 8 7 6 6 7 7 7 7
nan nan nan nan nan nan nan nan nan nan nan nan nan nan nan nan nan nan nan nan nan nan nan nan nan nan nan nan 25 18 12 10 10 10 8 6 6 8 8 6 3 1 2 2 2 3 3 4 5 5 6 5 4 3 4 4 5 4 3 3 6 10 12 12 9 9 7 9 9 8 8 9 9 8 8 8 8 9 8 8 8 8 8 8 7 7
nan nan nan nan nan nan nan nan nan nan nan nan nan nan nan nan nan nan nan nan nan nan nan nan nan nan nan nan 25 25 24 28 28 22 17 14 12 11 10 7 4 3 2 2 3 2 2 2 3 4 6 7 6 4 5 5 5 4 3 3 5 8 12 13 9 9 7 6 8 7 7 6 8 8 9 9 9 9 9 9 9 9 9 8 7 6
nan nan nan nan nan nan nan nan nan nan nan nan nan nan nan nan nan nan nan nan nan nan nan nan nan nan nan nan 30 29 nan 33 32 28 21 16 16 16 16 13 9 5 4 2 1 2 2 3 4 5 6 7 7 5 7 5 4 4 3 3 4 7 13 12 10 8 7 6 6 5 4 5 5 6 8 9 9 10 10 10 9 9 9 8 7 7
nan nan nan nan nan nan nan nan nan nan nan nan nan nan nan nan nan nan nan nan nan nan nan nan nan nan nan nan nan 32 nan nan nan nan nan 21 13 12 13 15 15 13 9 5 2 2 4 4 5 6 7 7 8 7 7 4 3 4 3 4 4 7 11 13 11 9 8 7 6 4 3 4 5 6 8 6 7 8 8 9 9 9 9 8 8 8
nan nan nan nan nan nan nan nan nan nan nan nan nan nan nan nan nan nan nan nan nan nan nan nan nan nan nan nan nan nan nan nan nan nan nan nan 26 15 11 10 13 14 14 12 7 4 4 4 4 5 6 6 7 6 7 6 3 4 4 3 4 6 10 13 12 9 8 8 7 5 4 5 7 7 6 7 7 8 8 9 10 9 8 8 7 6
nan nan nan nan nan nan nan nan nan nan nan nan nan nan nan nan nan nan nan nan nan nan nan nan nan nan nan nan nan nan nan nan nan nan nan nan 31 29 16 11 10 10 10 10 9 7 3 2 2 2 3 5 4 6 6 6 3 5 5 4 4 6 10 13 12 10 9 8 7 6 5 6 8 7 7 7 7 8 9 9 9 8 7 6 4 3
nan nan nan nan nan nan nan nan nan nan nan nan nan nan nan nan nan nan nan nan nan nan nan nan nan nan nan nan nan nan nan nan nan 35 nan nan 34 34 24 12 8 8 8 8 6 4 3 3 2 3 3 2 3 4 5 5 4 5 6 6 4 8 10 13 12 12 10 10 8 7 6 7 8 7 7 7 7 7 8 9 8 9 8 6 4 3
nan nan nan nan nan nan nan nan nan nan nan nan nan nan nan nan nan nan nan nan nan nan nan nan nan nan nan nan nan nan nan nan nan 41 40 nan nan 39 31 18 10 9 8 8 6 5 3 3 4 5 5 4 4 4 4 6 4 5 6 7 5 7 10 13 13 13 12 11 10 7 6 6 7 8 7 9 8 8 7 8 9 8 8 7 7 6
nan nan nan nan nan nan nan nan nan nan nan nan nan nan nan nan nan nan nan nan nan nan nan nan nan nan nan nan nan nan nan nan nan nan nan 42 nan nan 34 32 23 10 6 6 6 7 5 5 4 6 5 5 4 4 4 4 5 5 6 7 7 7 11 12 13 13 13 12 11 8 6 7 7 6 4 6 5 5 6 8 8 9 8 8 9 9
nan nan nan nan nan nan nan nan nan nan nan nan nan nan nan nan nan nan nan nan nan nan nan nan nan nan nan nan nan nan nan nan nan nan nan 42 nan nan nan 32 29 26 15 3 3 5 5 4 2 4 5 4 3 3 3 5 6 6 6 7 7 7 9 12 15 15 15 13 11 10 8 8 8 7 5 6 7 7 8 8 9 9 10 9 10 10
nan nan nan nan nan nan nan nan nan nan nan nan nan nan nan nan nan nan nan nan nan nan nan nan nan nan nan nan nan nan nan nan nan nan nan nan 46 nan nan nan nan 29 25 13 3 5 7 6 5 4 3 4 6 7 6 7 7 6 5 5 6 7 8 12 16 16 17 14 14 12 9 8 9 9 8 8 9 9 8 6 8 8 10 11 11 11
nan nan nan nan nan nan nan nan nan nan nan nan nan nan nan nan nan nan nan nan nan nan nan nan nan nan nan nan nan nan nan nan nan nan nan 47 46 43 39 nan nan nan 25 18 8 6 9 10 9 9 8 7 8 10 10 8 7 5 5 4 5 7 10 12 14 16 16 15 15 14 12 12 12 11 9 10 10 10 8 8 8 8 10 10 12 11
nan nan nan nan nan nan nan nan nan nan nan nan nan nan nan nan nan nan nan nan nan nan nan nan nan nan nan nan nan nan nan nan nan nan 46 46 45 43 42 41 39 35 31 20 13 9 11 13 14 14 13 11 12 14 14 11 7 6 6 4 4 6 8 10 13 16 18 19 17 15 13 12 13 11 10 9 9 10 10 10 9 10 10 13 11 12
nan nan nan nan nan nan nan nan nan nan nan nan nan nan nan nan nan nan nan nan nan nan nan nan nan nan nan nan nan nan nan 46 nan 47 48 48 46 42 43 45 44 41 37 34 17 12 13 13 15 16 16 17 18 17 14 13 12 10 7 6 5 4 7 9 12 16 19 20 20 16 15 14 15 13 12 9 9 9 10 10 10 10 12 10 11 11
nan nan nan nan nan nan nan nan nan nan nan nan nan nan nan nan nan nan nan nan nan nan nan nan nan nan nan nan nan nan nan nan 48 48 49 51 48 45 45 48 48 46 44 39 41 29 14 14 15 15 17 18 17 17 15 14 14 11 9 8 7 5 4 7 11 16 20 21 21 19 18 17 17 15 11 9 9 8 8 10 10 11 10 9 10 11
nan nan nan nan nan nan nan nan nan nan nan nan nan nan nan nan nan nan nan nan nan nan nan nan nan nan nan nan nan nan nan nan nan 49 51 51 50 48 49 51 51 51 49 47 43 41 41 28 15 16 19 21 22 21 17 16 16 15 14 11 10 6 5 8 12 16 19 20 20 20 20 19 18 15 13 10 11 9 9 11 11 12 10 10 10 11
nan nan nan nan nan nan nan nan nan nan nan nan nan nan nan nan nan nan nan nan nan nan nan nan nan nan nan nan nan nan nan nan nan 51 50 51 51 50 51 51 52 53 53 52 48 47 44 43 41 33 24 22 24 20 20 19 18 17 14 13 11 10 9 11 14 16 18 18 19 20 20 19 18 17 14 12 14 11 12 12 13 13 11 11 10 10
nan nan nan nan nan nan nan nan nan nan nan nan nan nan nan nan nan nan nan nan nan nan nan nan nan nan nan nan nan nan nan nan nan nan 48 50 51 51 51 52 54 54 55 54 53 52 48 45 42 40 40 37 25 21 22 20 20 19 17 14 13 13 12 11 14 16 18 20 19 21 20 20 19 17 16 16 16 15 15 15 14 14 14 12 11 12
nan nan nan nan nan nan nan nan nan nan nan nan nan nan nan nan nan nan nan nan nan nan nan nan nan nan nan nan nan nan nan nan nan nan nan 49 51 52 51 52 53 54 55 55 54 51 51 52 49 44 43 40 42 37 24 21 22 20 20 18 16 16 15 14 14 16 18 20 20 21 21 21 21 21 20 20 20 20 19 17 16 15 15 15 14 13
nan nan nan nan nan nan nan nan nan nan nan nan nan nan nan nan nan nan nan nan nan nan nan nan nan nan nan nan nan nan nan nan nan nan nan nan 48 nan 51 51 56 59 58 56 57 56 54 53 52 50 46 45 43 41 43 35 25 22 23 21 20 18 18 19 16 17 18 21 22 23 22 22 23 24 25 25 25 23 21 19 18 17 18 18 15 14
nan nan nan nan nan nan nan nan nan nan nan nan nan nan nan nan nan nan nan nan nan nan nan nan nan nan nan nan nan nan nan nan nan nan nan nan nan nan 51 54 56 57 57 58 56 55 54 54 55 54 51 48 47 47 43 42 43 40 29 24 23 21 19 20 19 18 19 21 22 23 24 26 27 28 28 28 28 26 23 22 21 21 20 20 18 17
nan nan nan nan nan nan nan nan nan nan nan nan nan nan nan nan nan nan nan nan nan nan nan nan nan nan nan nan nan nan nan nan nan nan nan nan nan nan nan 54 55 56 56 56 56 56 53 53 55 56 54 52 52 51 46 43 43 42 43 34 24 24 22 24 21 20 18 17 19 24 27 30 31 31 30 30 29 28 26 24 24 22 21 20 19 19
nan nan nan nan nan nan nan nan nan nan nan nan nan nan nan nan nan nan nan nan nan nan nan nan nan nan nan nan nan nan nan nan nan nan nan nan nan nan nan nan 53 54 54 54 55 55 53 53 53 55 57 56 55 53 49 46 42 43 43 45 39 27 25 26 24 21 18 16 18 23 27 31 32 32 32 31 31 30 28 26 26 25 23 22 21 20
nan nan nan nan nan nan nan nan nan nan nan nan nan nan nan nan nan nan nan nan nan nan nan nan nan nan nan nan nan nan nan nan nan nan nan nan nan nan nan nan nan 52 53 53 53 52 53 52 52 54 56 57 55 54 53 49 47 44 45 44 44 43 35 25 23 21 20 17 21 25 27 27 29 30 30 31 30 30 29 29 28 27 26 24 23 23
nan nan nan nan nan nan nan nan nan nan nan nan nan nan nan nan nan nan nan nan nan nan nan nan nan nan nan nan nan nan nan nan nan nan nan nan nan nan nan nan nan 51 51 50 52 52 51 51 49 48 50 53 55 55 53 50 49 47 46 45 46 45 43 38 25 24 23 21 22 24 26 26 27 28 29 30 29 30 31 31 29 27 26 23 23 25
nan nan nan nan nan nan nan nan nan nan nan nan nan nan nan nan nan nan nan nan nan nan nan nan nan nan nan nan nan nan nan nan nan nan nan nan nan nan nan nan nan nan nan 50 50 52 51 50 48 47 48 50 52 52 51 50 50 47 46 46 47 50 49 46 43 31 28 28 26 27 26 26 26 25 26 28 30 32 32 31 29 26 26 27 28 28
nan nan nan nan nan nan nan nan nan nan nan nan nan nan nan nan nan nan nan nan nan nan nan nan nan nan nan nan nan nan nan nan nan nan nan nan nan nan nan nan nan nan nan nan 53 54 54 52 50 49 50 50 51 51 51 51 52 49 48 48 48 50 52 53 51 50 41 36 35 35 33 31 27 26 27 29 31 32 32 31 29 28 29 29 29 28
nan nan nan nan nan nan nan nan nan nan nan nan nan nan nan nan nan nan nan nan nan nan nan nan nan nan nan nan nan nan nan nan nan nan nan nan nan nan nan nan nan nan nan nan nan 55 56 54 53 51 50 48 50 50 50 51 52 53 51 51 51 50 52 53 53 51 52 50 46 42 39 36 30 28 29 29 31 31 31 31 31 30 31 31 31 30
nan nan nan nan nan nan nan nan nan nan nan nan nan nan nan nan nan nan nan nan nan nan nan nan nan nan nan nan nan nan nan nan nan nan nan nan nan nan nan nan nan nan nan nan nan nan 56 55 53 52 50 50 51 52 51 51 51 53 52 53 53 53 53 51 49 50 49 46 45 42 39 35 31 29 28 29 30 29 29 30 30 30 33 32 31 31
nan nan nan nan nan nan nan nan nan nan nan nan nan nan nan nan nan nan nan nan nan nan nan nan nan nan nan nan nan nan nan nan nan nan nan nan nan nan nan nan nan nan nan nan nan nan nan nan 55 54 53 53 54 55 53 52 52 53 55 57 56 55 54 50 50 51 49 45 42 41 39 36 32 30 30 31 30 31 31 31 31 31 32 31 31 30
nan nan nan nan nan nan nan nan nan nan nan nan nan nan nan nan nan nan nan nan nan nan nan nan nan nan nan nan nan nan nan nan nan nan nan nan nan nan nan nan nan nan nan nan nan nan nan nan nan 56 55 57 58 57 57 56 54 55 57 59 60 58 55 51 48 49 48 47 45 43 41 38 35 33 32 30 30 31 30 31 30 32 34 31 31 31
nan nan nan nan nan nan nan nan nan nan nan nan nan nan nan nan nan nan nan nan nan nan nan nan nan nan nan nan nan nan nan nan nan nan nan nan nan nan nan nan nan nan nan nan nan nan nan nan nan nan nan nan 60 59 60 58 58 57 57 60 60 58 55 52 49 48 47 45 44 43 43 43 41 37 33 31 32 31 29 31 34 32 33 29 30 31
nan nan nan nan nan nan nan nan nan nan nan nan nan nan nan nan nan nan nan nan nan nan nan nan nan nan nan nan nan nan nan nan nan nan nan nan nan nan nan nan nan nan nan nan nan nan nan nan nan nan nan nan nan 61 61 60 60 59 58 58 59 57 54 52 51 49 47 46 44 42 43 43 40 41 40 36 35 34 32 34 35 36 33 30 31 29
nan nan nan nan nan nan nan nan nan nan nan nan nan nan nan nan nan nan nan nan nan nan nan nan nan nan nan nan nan nan nan nan nan nan nan nan nan nan nan nan nan nan nan nan nan nan nan nan nan nan nan nan nan nan nan nan 60 59 58 57 58 57 54 52 52 50 49 46 43 41 41 43 42 41 42 42 42 40 37 38 36 34 33 33 30 26
nan nan nan nan nan nan nan nan nan nan nan nan nan nan nan nan nan nan nan nan nan nan nan nan nan nan nan nan nan nan nan nan nan nan nan nan nan nan nan nan nan nan nan nan nan nan nan nan nan nan nan nan nan nan nan nan nan nan nan 58 nan 56 nan 54 52 50 49 49 46 42 42 43 42 41 43 44 46 44 40 38 36 37 37 34 30 25
nan nan nan nan nan nan nan nan nan nan nan nan nan nan nan nan nan nan nan nan nan nan nan nan nan nan nan nan nan nan nan nan nan nan nan nan nan nan nan nan nan nan nan nan nan nan nan nan nan nan nan nan nan nan nan nan nan nan nan nan nan nan nan nan nan nan 50 52 51 47 45 45 44 41 41 42 43 44 42 40 39 37 36 34 30 25
nan nan nan nan nan nan nan nan nan nan nan nan nan nan nan nan nan nan nan nan nan nan nan nan nan nan nan nan nan nan nan nan nan nan nan nan nan nan nan nan nan nan nan nan nan nan nan nan nan nan nan nan nan nan nan nan nan nan nan nan nan nan nan nan nan nan 52 52 51 48 47 47 46 45 42 40 40 42 43 42 41 40 39 36 31 24
nan nan nan nan nan nan nan nan nan nan nan nan nan nan nan nan nan nan nan nan nan nan nan nan nan nan nan nan nan nan nan nan nan nan nan nan nan nan nan nan nan nan nan nan nan nan nan nan nan nan nan nan nan nan nan nan nan nan nan nan nan nan nan nan nan nan nan nan 51 50 49 49 48 44 41 40 38 38 39 40 42 41 40 37 33 28
nan nan nan nan nan nan nan nan nan nan nan nan nan nan nan nan nan nan nan nan nan nan nan nan nan nan nan nan nan nan nan nan nan nan nan nan nan nan nan nan nan nan nan nan nan nan nan nan nan nan nan nan nan nan nan nan nan nan nan nan nan nan nan nan nan nan nan nan nan nan nan 50 51 nan 44 42 41 39 39 39 38 40 39 34 28 26
nan nan nan nan nan nan nan nan nan nan nan nan nan nan nan nan nan nan nan nan nan nan nan nan nan nan nan nan nan nan nan nan nan nan nan nan nan nan nan nan nan nan nan nan nan nan nan nan nan nan nan nan nan nan nan nan nan nan nan nan nan nan nan nan nan nan nan nan nan nan nan nan nan nan nan 43 41 39 38 38 35 34 35 32 26 23
nan nan nan nan nan nan nan nan nan nan nan nan nan nan nan nan nan nan nan nan nan nan nan nan nan nan nan nan nan nan nan nan nan nan nan nan nan nan nan nan nan nan nan nan nan nan nan nan nan nan nan nan nan nan nan nan nan nan nan nan nan nan nan nan nan nan nan nan nan nan nan nan nan nan nan 45 44 40 36 35 34 31 31 30 28 24
nan nan nan nan nan nan nan nan nan nan nan nan nan nan nan nan nan nan nan nan nan nan nan nan nan nan nan nan nan nan nan nan nan nan nan nan nan nan nan nan nan nan nan nan nan nan nan nan nan nan nan nan nan nan nan nan nan nan nan nan nan nan nan nan nan nan nan nan nan nan nan nan nan nan nan nan 47 47 41 35 31 30 30 30 31 25
nan nan nan nan nan nan nan nan nan nan nan nan nan nan nan nan nan nan nan nan nan nan nan nan nan nan nan nan nan nan nan nan nan nan nan nan nan nan nan nan nan nan nan nan nan nan nan nan nan nan nan nan nan nan nan nan nan nan nan nan nan nan nan nan nan nan nan nan nan nan nan nan nan nan nan nan 48 47 44 39 35 29 23 23 28 28
Wind_Direction
nan nan nan nan nan nan nan nan nan nan nan nan nan nan nan nan nan nan nan nan 193 195 197 201 188 183 191 193 199 191 186 175 167 161 157 141 132 116 107 99 99 110 74 359 14 15 9 9 4 6 356 331 271 260 282 280 288 244 199 187 171 162 155 152 146 149 147 146 150 150 143 141 144 142 141 136 132 126 121 119 111 103 103 105 108 109
nan nan nan nan nan nan nan nan nan nan nan nan nan nan nan nan nan nan nan nan 199 194 206 206 196 187 188 202 211 220 211 187 177 176 165 152 140 136 111 108 84 90 110 30 4 12 11 14 5 4 13 342 286 235 275 293 299 269 218 188 179 176 165 161 158 160 157 152 147 149 145 142 146 145 139 135 129 124 127 122 116 110 112 109 108 109
nan nan nan nan nan nan nan nan nan nan nan nan nan nan nan nan nan nan nan nan 206 200 nan 212 205 199 198 209 224 240 237 221 227 243 278 289 277 229 199 174 134 83 71 57 33 12 16 18 13 4 6 8 342 281 309 310 292 283 225 192 187 181 176 172 167 165 158 153 148 145 155 141 146 144 143 139 140 137 130 129 119 118 120 115 116 112
nan nan nan nan nan nan nan nan nan nan nan nan nan nan nan nan nan nan nan nan 212 nan nan 211 nan nan 209 214 222 235 238 233 249 268 272 281 290 293 297 269 190 90 89 66 56 42 28 23 23 7 357 16 7 238 273 300 296 250 207 198 191 188 184 183 173 162 153 151 153 146 155 148 141 153 160 158 160 151 138 129 129 126 123 118 120 113
nan nan nan nan nan nan nan nan nan nan nan nan nan nan nan nan nan nan nan nan nan nan nan nan nan nan 215 216 221 225 234 237 249 262 265 264 266 272 273 283 138 56 15 82 65 64 55 41 23 358 0 15 9 223 238 270 272 222 247 204 193 192 188 185 184 161 159 168 155 150 164 163 161 169 174 172 162 151 138 129 129 125 124 125 123 119
nan nan nan nan nan nan nan nan nan nan nan nan nan nan nan nan nan nan nan nan nan nan nan nan nan nan 220 215 214 229 235 232 241 254 261 261 267 268 269 334 45 63 328 348 9 19 52 89 266 309 5 24 23 218 223 247 282 287 269 224 197 191 191 186 180 160 159 161 159 159 166 175 173 168 174 164 153 149 133 122 137 144 134 132 130 128
nan nan nan nan nan nan nan nan nan nan nan nan nan nan nan nan nan nan nan nan nan nan nan nan nan nan nan 213 221 230 235 240 243 247 257 261 259 258 243 230 186 57 352 345 350 339 344 336 318 330 354 6 347 251 228 234 262 311 300 256 208 194 192 189 178 165 163 166 170 161 160 171 175 163 164 166 156 152 147 146 152 158 149 141 137 132
nan nan nan nan nan nan nan nan nan nan nan nan nan nan nan nan nan nan nan nan nan nan nan nan nan nan nan nan 214 222 226 232 243 246 250 253 248 240 235 244 248 60 41 325 3 356 359 352 345 339 333 307 316 292 251 235 235 285 291 248 210 196 195 189 183 173 167 171 181 179 163 163 159 145 161 170 166 165 163 157 152 160 151 152 147 143
nan nan nan nan nan nan nan nan nan nan nan nan nan nan nan nan nan nan nan nan nan nan nan nan nan nan nan nan 213 217 210 206 207 207 200 193 199 206 214 219 243 305 30 359 333 1 7 3 350 322 312 320 342 321 276 242 228 243 243 209 197 197 198 192 185 182 179 182 188 183 170 156 156 158 170 178 174 169 167 158 161 155 155 162 156 145
nan nan nan nan nan nan nan nan nan nan nan nan nan nan nan nan nan nan nan nan nan nan nan nan nan nan nan nan 205 209 196 196 194 184 176 174 170 172 176 176 190 206 155 66 10 356 348 337 335 313 304 327 351 332 295 272 234 243 243 194 184 190 195 194 187 184 195 199 197 190 171 143 159 174 182 180 178 171 173 164 158 155 159 162 167 155
nan nan nan nan nan nan nan nan nan nan nan nan nan nan nan nan nan nan nan nan nan nan nan nan nan nan nan nan 203 201 nan 195 192 191 192 184 171 164 161 157 164 165 140 134 36 337 314 299 298 299 323 342 352 333 324 307 253 248 253 200 179 181 190 195 192 190 201 212 209 188 162 139 159 187 192 188 178 175 174 165 157 154 158 168 174 178
nan nan nan nan nan nan nan nan nan nan nan nan nan nan nan nan nan nan nan nan nan nan nan nan nan nan nan nan nan 204 nan nan nan nan nan 188 175 169 169 165 157 157 160 153 170 281 293 284 297 308 329 342 356 355 349 336 273 251 240 212 188 183 188 193 193 191 198 211 213 189 161 155 177 201 196 182 175 174 168 162 161 163 168 177 188 189
nan nan nan nan nan nan nan nan nan nan nan nan nan nan nan nan nan nan nan nan nan nan nan nan nan nan nan nan nan nan nan nan nan nan nan nan 183 167 167 171 179 175 171 168 169 210 265 291 300 314 322 327 350 2 359 358 307 250 241 243 213 190 189 191 194 193 199 212 212 195 167 174 197 199 192 185 175 178 171 167 165 172 173 187 198 200
nan nan nan nan nan nan nan nan nan nan nan nan nan nan nan nan nan nan nan nan nan nan nan nan nan nan nan nan nan nan nan nan nan nan nan nan 189 181 169 176 188 199 200 188 181 183 197 240 273 287 288 307 329 1 2 2 318 246 230 234 215 197 195 193 196 197 201 208 208 193 178 193 211 200 189 185 173 173 175 177 168 165 171 184 192 215
nan nan nan nan nan nan nan nan nan nan nan nan nan nan nan nan nan nan nan nan nan nan nan nan nan nan nan nan nan nan nan nan nan 198 nan nan 193 190 182 173 176 196 214 226 225 213 175 170 225 228 231 257 309 347 5 0 317 266 249 238 227 208 199 197 199 202 206 209 206 193 178 198 216 209 194 182 181 183 183 176 172 172 171 170 173 194
nan nan nan nan nan nan nan nan nan nan nan nan nan nan nan nan nan nan nan nan nan nan nan nan nan nan nan nan nan nan nan nan nan 200 198 nan nan 194 197 188 179 183 199 221 235 255 258 211 197 200 204 211 245 306 337 360 332 294 262 252 244 222 211 202 201 202 210 213 211 205 189 195 221 220 203 192 192 191 193 192 185 182 177 170 182 195
nan nan nan nan nan nan nan nan nan nan nan nan nan nan nan nan nan nan nan nan nan nan nan nan nan nan nan nan nan nan nan nan nan nan nan 198 nan nan 196 193 185 170 183 203 212 216 239 241 216 192 204 217 238 273 313 324 316 309 274 260 248 224 215 210 207 207 211 215 218 213 201 201 219 233 219 188 177 168 197 202 196 188 182 184 190 199
nan nan nan nan nan nan nan nan nan nan nan nan nan nan nan nan nan nan nan nan nan nan nan nan nan nan nan nan nan nan nan nan nan nan nan 201 nan nan nan 187 184 177 163 152 215 225 240 258 242 187 197 214 232 264 281 278 286 275 276 276 267 243 225 215 213 211 212 217 218 216 209 205 215 222 212 197 197 192 204 210 209 202 202 197 201 205
nan nan nan nan nan nan nan nan nan nan nan nan nan nan nan nan nan nan nan nan nan nan nan nan nan nan nan nan nan nan nan nan nan nan nan nan 199 nan nan nan nan 177 173 159 163 219 224 231 221 222 213 212 218 223 226 244 261 254 263 272 281 268 244 230 217 215 213 218 215 213 212 212 217 218 210 204 206 204 199 197 211 211 208 210 216 217
nan nan nan nan nan nan nan nan nan nan nan nan nan nan nan nan nan nan nan nan nan nan nan nan nan nan nan nan nan nan nan nan nan nan nan 199 198 196 192 nan nan nan 176 167 162 196 217 221 226 232 225 222 223 221 216 235 241 267 274 270 261 251 245 238 231 225 222 222 219 215 213 214 220 223 215 210 212 202 198 200 206 217 219 218 219 219
nan nan nan nan nan nan nan nan nan nan nan nan nan nan nan nan nan nan nan nan nan nan nan nan nan nan nan nan nan nan nan nan nan nan 198 198 197 197 197 191 187 185 183 180 177 193 217 225 233 233 230 223 222 222 221 221 230 240 245 261 280 272 263 252 240 233 225 224 222 223 222 219 222 225 217 205 204 201 203 206 208 215 217 226 225 225
nan nan nan nan nan nan nan nan nan nan nan nan nan nan nan nan nan nan nan nan nan nan nan nan nan nan nan nan nan nan nan 207 nan 200 198 198 197 200 201 197 193 190 189 193 192 203 213 232 239 243 244 234 230 233 235 223 222 223 228 230 248 259 259 258 247 236 231 227 224 225 222 220 220 223 218 210 204 202 205 207 214 220 228 231 231 229
nan nan nan nan nan nan nan nan nan nan nan nan nan nan nan nan nan nan nan nan nan nan nan nan nan nan nan nan nan nan nan nan 209 205 204 203 202 203 204 202 197 195 195 198 202 200 210 231 232 245 251 249 246 242 241 234 230 227 224 221 218 225 247 251 245 239 235 233 229 228 224 223 223 226 225 215 207 204 203 208 214 225 230 229 230 234
nan nan nan nan nan nan nan nan nan nan nan nan nan nan nan nan nan nan nan nan nan nan nan nan nan nan nan nan nan nan nan nan nan 212 209 210 209 206 205 206 202 199 199 202 203 206 206 209 228 239 242 245 244 239 242 236 232 230 225 221 215 203 212 228 231 234 235 234 231 231 229 227 225 229 227 215 207 206 208 209 213 222 225 230 231 237
nan nan nan nan nan nan nan nan nan nan nan nan nan nan nan nan nan nan nan nan nan nan nan nan nan nan nan nan nan nan nan nan nan 215 214 213 213 209 205 206 206 204 204 205 207 208 208 210 210 209 217 242 247 242 239 239 241 238 231 227 220 210 211 215 221 225 229 232 233 232 229 227 227 228 228 221 212 208 211 212 214 219 221 223 227 234
nan nan nan nan nan nan nan nan nan nan nan nan nan nan nan nan nan nan nan nan nan nan nan nan nan nan nan nan nan nan nan nan nan nan 217 216 215 213 208 207 208 209 209 209 210 210 209 209 209 210 209 213 229 245 240 238 242 241 240 239 232 224 224 223 223 224 224 225 228 229 231 229 227 228 230 228 220 215 215 215 215 218 223 224 225 230
nan nan nan nan nan nan nan nan nan nan nan nan nan nan nan nan nan nan nan nan nan nan nan nan nan nan nan nan nan nan nan nan nan nan nan 216 214 215 213 211 212 213 214 214 213 211 209 208 207 209 209 212 216 219 231 241 239 241 238 237 235 228 229 231 231 232 228 224 223 224 228 230 229 228 229 230 227 223 220 217 216 218 221 227 227 229
nan nan nan nan nan nan nan nan nan nan nan nan nan nan nan nan nan nan nan nan nan nan nan nan nan nan nan nan nan nan nan nan nan nan nan nan 217 nan 216 216 215 215 214 216 215 212 210 208 207 207 208 210 212 217 221 223 229 238 242 244 243 238 235 231 233 234 233 228 222 220 223 226 227 227 228 229 231 231 228 225 222 221 222 226 231 231
nan nan nan nan nan nan nan nan nan nan nan nan nan nan nan nan nan nan nan nan nan nan nan nan nan nan nan nan nan nan nan nan nan nan nan nan nan nan 219 220 220 218 215 215 215 214 211 209 208 206 208 210 211 213 217 221 221 220 224 240 246 248 246 245 243 239 238 233 226 221 221 223 224 225 227 230 233 235 234 232 230 229 229 230 229 229
nan nan nan nan nan nan nan nan nan nan nan nan nan nan nan nan nan nan nan nan nan nan nan nan nan nan nan nan nan nan nan nan nan nan nan nan nan nan nan 222 223 221 217 215 215 215 213 212 210 208 208 211 212 212 214 218 220 220 221 222 237 242 246 247 249 247 242 239 232 228 226 226 225 225 228 231 233 235 236 236 235 235 235 234 233 232
nan nan nan nan nan nan nan nan nan nan nan nan nan nan nan nan nan nan nan nan nan nan nan nan nan nan nan nan nan nan nan nan nan nan nan nan nan nan nan nan 224 223 220 217 216 215 214 213 211 211 211 212 212 212 214 216 218 219 221 221 219 229 241 245 248 250 249 240 236 234 234 232 231 228 229 230 231 233 235 237 237 237 237 237 238 239
nan nan nan nan nan nan nan nan nan nan nan nan nan nan nan nan nan nan nan nan nan nan nan nan nan nan nan nan nan nan nan nan nan nan nan nan nan nan nan nan nan 223 221 218 217 216 214 213 212 211 212 213 213 212 214 215 217 219 221 222 221 219 222 236 243 249 249 244 237 238 239 236 234 233 230 231 231 234 237 239 240 240 242 243 244 244
nan nan nan nan nan nan nan nan nan nan nan nan nan nan nan nan nan nan nan nan nan nan nan nan nan nan nan nan nan nan nan nan nan nan nan nan nan nan nan nan nan 221 221 218 216 216 215 213 213 212 213 215 216 214 212 215 216 218 220 221 222 221 222 220 229 240 242 243 242 241 240 238 237 237 235 235 236 236 237 240 241 242 243 245 245 244
nan nan nan nan nan nan nan nan nan nan nan nan nan nan nan nan nan nan nan nan nan nan nan nan nan nan nan nan nan nan nan nan nan nan nan nan nan nan nan nan nan nan nan 217 215 214 215 215 215 215 214 216 217 217 215 217 218 218 220 222 222 224 224 225 220 225 234 235 236 238 238 236 235 235 235 235 236 237 237 238 239 240 241 241 244 247
nan nan nan nan nan nan nan nan nan nan nan nan nan nan nan nan nan nan nan nan nan nan nan nan nan nan nan nan nan nan nan nan nan nan nan nan nan nan nan nan nan nan nan nan 212 211 214 215 215 217 217 217 217 218 217 218 220 220 221 222 225 225 228 228 229 226 225 227 228 229 229 228 225 224 225 227 231 233 236 238 236 237 238 239 244 248
nan nan nan nan nan nan nan nan nan nan nan nan nan nan nan nan nan nan nan nan nan nan nan nan nan nan nan nan nan nan nan nan nan nan nan nan nan nan nan nan nan nan nan nan nan 210 212 215 216 217 219 219 220 220 221 220 219 220 221 223 226 227 229 228 227 228 228 227 226 229 234 237 236 230 226 222 224 227 230 232 234 236 237 238 239 240
nan nan nan nan nan nan nan nan nan nan nan nan nan nan nan nan nan nan nan nan nan nan nan nan nan nan nan nan nan nan nan nan nan nan nan nan nan nan nan nan nan nan nan nan nan nan 212 216 217 217 220 222 223 223 222 221 221 222 223 225 225 228 232 232 232 231 229 227 226 228 231 233 233 235 240 242 236 227 224 227 231 233 236 237 237 238
nan nan nan nan nan nan nan nan nan nan nan nan nan nan nan nan nan nan nan nan nan nan nan nan nan nan nan nan nan nan nan nan nan nan nan nan nan nan nan nan nan nan nan nan nan nan nan nan 217 218 220 221 223 225 225 224 223 224 225 226 226 229 231 231 232 234 233 234 232 230 230 233 235 234 233 236 243 242 234 226 223 229 234 237 239 239
nan nan nan nan nan nan nan nan nan nan nan nan nan nan nan nan nan nan nan nan nan nan nan nan nan nan nan nan nan nan nan nan nan nan nan nan nan nan nan nan nan nan nan nan nan nan nan nan nan 218 220 222 222 223 226 225 225 226 226 226 227 228 230 229 228 229 230 230 231 231 231 232 234 236 234 233 237 240 239 237 228 223 228 231 235 235
nan nan nan nan nan nan nan nan nan nan nan nan nan nan nan nan nan nan nan nan nan nan nan nan nan nan nan nan nan nan nan nan nan nan nan nan nan nan nan nan nan nan nan nan nan nan nan nan nan nan nan nan 222 223 224 227 227 226 228 227 228 228 227 227 227 227 227 228 230 230 230 231 231 234 238 238 240 244 244 245 246 236 231 227 229 230
nan nan nan nan nan nan nan nan nan nan nan nan nan nan nan nan nan nan nan nan nan nan nan nan nan nan nan nan nan nan nan nan nan nan nan nan nan nan nan nan nan nan nan nan nan nan nan nan nan nan nan nan nan 224 225 227 229 228 228 229 230 229 228 226 226 227 228 229 227 230 233 233 232 236 237 238 240 240 240 244 249 251 246 237 233 227
nan nan nan nan nan nan nan nan nan nan nan nan nan nan nan nan nan nan nan nan nan nan nan nan nan nan nan nan nan nan nan nan nan nan nan nan nan nan nan nan nan nan nan nan nan nan nan nan nan nan nan nan nan nan nan nan 228 230 230 230 230 229 228 227 227 227 228 229 229 229 235 238 237 238 241 241 239 240 240 243 249 253 252 249 248 241
nan nan nan nan nan nan nan nan nan nan nan nan nan nan nan nan nan nan nan nan nan nan nan nan nan nan nan nan nan nan nan nan nan nan nan nan nan nan nan nan nan nan nan nan nan nan nan nan nan nan nan nan nan nan nan nan nan nan nan 232 nan 229 nan 227 229 229 230 231 231 231 233 239 240 238 239 241 242 242 243 244 246 247 248 250 252 251
nan nan nan nan nan nan nan nan nan nan nan nan nan nan nan nan nan nan nan nan nan nan nan nan nan nan nan nan nan nan nan nan nan nan nan nan nan nan nan nan nan nan nan nan nan nan nan nan nan nan nan nan nan nan nan nan nan nan nan nan nan nan nan nan nan nan 233 233 233 232 233 234 235 239 240 238 239 242 242 243 246 247 245 245 247 248
nan nan nan nan nan nan nan nan nan nan nan nan nan nan nan nan nan nan nan nan nan nan nan nan nan nan nan nan nan nan nan nan nan nan nan nan nan nan nan nan nan nan nan nan nan nan nan nan nan nan nan nan nan nan nan nan nan nan nan nan nan nan nan nan nan nan 234 234 233 233 233 235 237 235 237 241 241 239 241 242 242 242 242 243 242 243
nan nan nan nan nan nan nan nan nan nan nan nan nan nan nan nan nan nan nan nan nan nan nan nan nan nan nan nan nan nan nan nan nan nan nan nan nan nan nan nan nan nan nan nan nan nan nan nan nan nan nan nan nan nan nan nan nan nan nan nan nan nan nan nan nan nan nan nan 234 232 231 232 233 235 237 239 241 242 241 240 241 240 239 241 241 241
nan nan nan nan nan nan nan nan nan nan nan nan nan nan nan nan nan nan nan nan nan nan nan nan nan nan nan nan nan nan nan nan nan nan nan nan nan nan nan nan nan nan nan nan nan nan nan nan nan nan nan nan nan nan nan nan nan nan nan nan nan nan nan nan nan nan nan nan nan nan nan 229 233 nan 233 236 241 245 244 240 239 239 237 237 237 236
nan nan nan nan nan nan nan nan nan nan nan nan nan nan nan nan nan nan nan nan nan nan nan nan nan nan nan nan nan nan nan nan nan nan nan nan nan nan nan nan nan nan nan nan nan nan nan nan nan nan nan nan nan nan nan nan nan nan nan nan nan nan nan nan nan nan nan nan nan nan nan nan nan nan nan 234 234 238 242 243 241 239 236 234 234 235
nan nan nan nan nan nan nan nan nan nan nan nan nan nan nan nan nan nan nan nan nan nan nan nan nan nan nan nan nan nan nan nan nan nan nan nan nan nan nan nan nan nan nan nan nan nan nan nan nan nan nan nan nan nan nan nan nan nan nan nan nan nan nan nan nan nan nan nan nan nan nan nan nan nan nan 234 232 233 240 242 241 240 236 232 231 233
nan nan nan nan nan nan nan nan nan nan nan nan nan nan nan nan nan nan nan nan nan nan nan nan nan nan nan nan nan nan nan nan nan nan nan nan nan nan nan nan nan nan nan nan nan nan nan nan nan nan nan nan nan nan nan nan nan nan nan nan nan nan nan nan nan nan nan nan nan nan nan nan nan nan nan nan 234 234 237 244 246 243 237 229 232 239
nan nan nan nan nan nan nan nan nan nan nan nan nan nan nan nan nan nan nan nan nan nan nan nan nan nan nan nan nan nan nan nan nan nan nan nan nan nan nan nan nan nan nan nan nan nan nan nan nan nan nan nan nan nan nan nan nan nan nan nan nan nan nan nan nan nan nan nan nan nan nan nan nan nan nan nan 235 237 237 234 240 251 253 243 235 230